Location: Nelson
(41.2830°S, 173.2830°E)
Time: 17:55:06
(UTC+12:00)

CENTAUR R/B - Pass Details

Date: 14 May 2021
Orbit: 740 x 1447 km, 63.4° (Epoch: 18 June)

Event Time Altitude Azimuth Distance (km) Brightness Sun altitude
Rises 17:55:59 0° 296° (WNW) 4,358 8.2 -7.3°
Reaches altitude 10° 17:59:19 10° 287° (WNW) 3,301 7.0 -7.9°
Maximum altitude 18:06:27 35° 224° (SW) 1,794 4.2 -9.2°
Drops below altitude 10° 18:12:39 10° 159° (SSE) 2,850 4.6 -10.3°
Enters shadow 18:14:56 - 150° (SSE) 3,564 5.0 -10.7°
